Location: Quedlinburg
(51.7921°N, 11.1414°E)
Time: 13:03:36
(UTC+02:00)

RS-15 - Pass Details

Date: 11 March 2026
Orbit: 1893 x 2152 km, 64.8° (Epoch: 22 April)

Event Time Altitude Azimuth Distance (km) Brightness Sun altitude
Rises 04:09:41 0° 311° (NW) 5,355 10.1 -23.3°
Reaches altitude 10° 04:12:59 10° 314° (NW) 4,382 9.7 -22.9°
Maximum altitude 04:24:19 67° 37° (NE) 2,163 8.4 -21.3°
Drops below altitude 10° 04:36:10 10° 120° (ESE) 4,579 10.5 -19.6°
Sets 04:39:41 0° 123° (ESE) 5,605 11.0 -19.0°
